| time (UTC) | temp C | wind direction | speed KPH | gust KPH | rain 1hr cm | rain 24hr cm | rain mn cm | humidity % | barometer mb |
| 20260508071539 | 5 | 0 | 0.0 | 3.2 | 0.00 | 0.00 | 0.00 | 66 | 1007.0 |
| 20260508070043 | 5 | 21 | 0.0 | 1.6 | 0.00 | 0.00 | 0.00 | 66 | 1007.0 |
| 20260508064542 | 5 | 0 | 0.0 | 4.8 | 0.00 | 0.00 | 0.00 | 65 | 1006.9 |
| 20260508063039 | 5 | 5 | 1.6 | 6.4 | 0.00 | 0.00 | 0.00 | 64 | 1006.9 |
| 20260508061537 | 6 | 344 | 1.6 | 6.4 | 0.00 | 0.00 | 0.00 | 62 | 1007.0 |
| 20260508060038 | 6 | 355 | 3.2 | 9.7 | 0.00 | 0.00 | 0.00 | 63 | 1007.2 |
| 20260508054538 | 6 | 360 | 3.2 | 12.9 | 0.00 | 0.05 | 0.00 | 63 | 1007.3 |
| 20260508053037 | 5 | 5 | 4.8 | 12.9 | 0.00 | 0.05 | 0.00 | 66 | 1007.3 |
| 20260508051534 | 5 | 0 | 1.6 | 6.4 | 0.00 | 0.05 | 0.00 | 67 | 1007.6 |
| 20260508050039 | 5 | 360 | 3.2 | 9.7 | 0.00 | 0.05 | 0.00 | 66 | 1007.8 |
| 20260508044541 | 5 | 346 | 1.6 | 6.4 | 0.00 | 0.51 | 0.00 | 68 | 1007.9 |
| 20260508043036 | 5 | 0 | 0.0 | 4.8 | 0.00 | 0.51 | 0.00 | 68 | 1007.9 |
| 20260508041549 | 6 | 0 | 0.0 | 1.6 | 0.00 | 0.51 | 0.00 | 66 | 1008.1 |
| 20260508040048 | 6 | 0 | 0.0 | 6.4 | 0.00 | 0.51 | 0.00 | 63 | 1007.9 |
| 20260508034541 | 6 | 335 | 3.2 | 6.4 | 0.00 | 0.53 | 0.51 | 62 | 1007.8 |
| 20260508033038 | 7 | 346 | 3.2 | 8.0 | 0.00 | 0.53 | 0.51 | 62 | 1007.9 |
| 20260508031545 | 7 | 0 | 4.8 | 14.5 | 0.00 | 0.53 | 0.51 | 63 | 1008.0 |
| 20260508030054 | 8 | 321 | 0.0 | 8.0 | 0.00 | 0.53 | 0.51 | 59 | 1007.9 |
| 20260508024541 | 8 | 346 | 1.6 | 9.7 | 0.00 | 0.53 | 0.51 | 56 | 1007.7 |
| 20260508023044 | 8 | 5 | 3.2 | 16.1 | 0.00 | 0.53 | 0.51 | 55 | 1007.6 |
| 20260508021537 | 9 | 313 | 4.8 | 14.5 | 0.00 | 0.53 | 0.51 | 54 | 1007.4 |
| 20260508020034 | 9 | 338 | 4.8 | 17.7 | 0.00 | 0.53 | 0.51 | 54 | 1007.3 |
| 20260508014542 | 10 | 26 | 4.8 | 12.9 | 0.00 | 0.58 | 0.51 | 50 | 1007.3 |
| 20260508013039 | 10 | 350 | 8.0 | 16.1 | 0.00 | 0.58 | 0.51 | 47 | 1007.1 |
| 20260508011539 | 10 | 26 | 4.8 | 12.9 | 0.00 | 0.58 | 0.51 | 50 | 1007.1 |
| 20260508010041 | 11 | 340 | 4.8 | 9.7 | 0.00 | 0.58 | 0.51 | 47 | 1006.9 |
| 20260508004542 | 11 | 10 | 3.2 | 17.7 | 0.00 | 0.61 | 0.51 | 45 | 1006.7 |
| 20260508003044 | 11 | 5 | 4.8 | 14.5 | 0.00 | 0.61 | 0.51 | 44 | 1006.3 |
| 20260508001542 | 12 | 5 | 4.8 | 14.5 | 0.00 | 0.61 | 0.51 | 43 | 1006.1 |
| 20260508000038 | 12 | 327 | 4.8 | 19.3 | 0.00 | 0.61 | 0.51 | 43 | 1006.0 |
| 20260507234538 | 13 | 345 | 4.8 | 14.5 | 0.00 | 0.69 | 0.51 | 42 | 1005.9 |
| 20260507233042 | 13 | 30 | 3.2 | 8.0 | 0.00 | 0.69 | 0.51 | 40 | 1005.8 |
| 20260507231550 | 14 | 9 | 6.4 | 12.9 | 0.00 | 0.69 | 0.51 | 40 | 1005.5 |
| 20260507230039 | 14 | 331 | 8.0 | 17.7 | 0.00 | 0.69 | 0.51 | 39 | 1005.2 |
| 20260507224556 | 15 | 9 | 3.2 | 11.3 | 0.00 | 1.07 | 0.51 | 38 | 1005.1 |
| 20260507223047 | 15 | 19 | 3.2 | 17.7 | 0.00 | 1.07 | 0.51 | 39 | 1004.9 |
| 20260507221543 | 16 | 348 | 6.4 | 17.7 | 0.00 | 1.07 | 0.51 | 36 | 1004.8 |
| 20260507220039 | 16 | 257 | 6.4 | 19.3 | 0.00 | 1.07 | 0.51 | 35 | 1004.7 |
| 20260507214539 | 16 | 206 | 6.4 | 19.3 | 0.00 | 1.47 | 0.51 | 35 | 1004.7 |
| 20260507213037 | 16 | 0 | 8.0 | 25.7 | 0.00 | 1.47 | 0.51 | 35 | 1004.6 |
| 20260507211536 | 17 | 347 | 6.4 | 19.3 | 0.00 | 1.47 | 0.51 | 33 | 1004.4 |
| 20260507210107 | 17 | 274 | 6.4 | 16.1 | 0.00 | 1.47 | 0.51 | 35 | 1004.4 |
| 20260507204540 | 15 | 221 | 3.2 | 12.9 | 0.00 | 1.57 | 0.51 | 56 | 1004.2 |
| 20260507203040 | 13 | 89 | 4.8 | 9.7 | 0.00 | 1.57 | 0.51 | 66 | 1004.3 |
| 20260507201537 | 15 | 174 | 0.0 | 16.1 | 0.00 | 1.57 | 0.51 | 65 | 1004.2 |
| 20260507200049 | 15 | 229 | 6.4 | 20.9 | 0.00 | 1.57 | 0.51 | 59 | 1004.2 |
| 20260507194540 | 15 | 157 | 6.4 | 17.7 | 0.00 | 1.63 | 0.51 | 61 | 1004.4 |
| 20260507193102 | 15 | 230 | 9.7 | 20.9 | 0.00 | 1.63 | 0.51 | 62 | 1004.5 |
| 20260507191537 | 15 | 217 | 8.0 | 19.3 | 0.00 | 1.63 | 0.51 | 62 | 1004.7 |
| 20260507190040 | 15 | 223 | 11.3 | 24.1 | 0.00 | 1.63 | 0.51 | 60 | 1004.7 |
| 20260507184542 | 15 | 208 | 8.0 | 24.1 | 0.00 | 1.63 | 0.51 | 62 | 1004.9 |
| 20260507183044 | 15 | 222 | 11.3 | 24.1 | 0.00 | 1.63 | 0.51 | 61 | 1005.0 |
| 20260507181542 | 15 | 165 | 8.0 | 24.1 | 0.00 | 1.63 | 0.51 | 66 | 1005.0 |
| 20260507180037 | 16 | 200 | 6.4 | 22.5 | 0.00 | 1.63 | 0.51 | 61 | 1005.1 |
| 20260507174538 | 15 | 220 | 11.3 | 25.7 | 0.00 | 1.63 | 0.51 | 67 | 1005.2 |
| 20260507173034 | 15 | 152 | 11.3 | 25.7 | 0.00 | 1.63 | 0.51 | 64 | 1005.1 |
| 20260507171546 | 15 | 205 | 8.0 | 20.9 | 0.00 | 1.63 | 0.51 | 64 | 1005.1 |
| 20260507170047 | 15 | 226 | 8.0 | 20.9 | 0.00 | 1.63 | 0.51 | 64 | 1005.2 |
| 20260507164538 | 15 | 234 | 4.8 | 16.1 | 0.00 | 1.63 | 0.51 | 65 | 1005.3 |
| 20260507163038 | 15 | 220 | 6.4 | 16.1 | 0.00 | 1.63 | 0.51 | 65 | 1005.6 |
| 20260507161535 | 15 | 213 | 3.2 | 17.7 | 0.00 | 1.63 | 0.51 | 60 | 1005.7 |
| 20260507160056 | 15 | 355 | 1.6 | 11.3 | 0.00 | 1.63 | 0.51 | 62 | 1005.9 |
| 20260507154536 | 15 | 174 | 4.8 | 19.3 | 0.00 | 1.63 | 0.51 | 66 | 1006.0 |
| 20260507153044 | 14 | 259 | 4.8 | 19.3 | 0.00 | 1.63 | 0.51 | 61 | 1006.2 |
| 20260507151536 | 14 | 217 | 6.4 | 22.5 | 0.00 | 1.63 | 0.51 | 64 | 1006.2 |
| 20260507150038 | 13 | 340 | 4.8 | 14.5 | 0.00 | 1.63 | 0.51 | 66 | 1006.2 |
| 20260507144545 | 13 | 260 | 3.2 | 17.7 | 0.00 | 1.63 | 0.51 | 67 | 1006.5 |
| 20260507143034 | 13 | 236 | 6.4 | 12.9 | 0.00 | 1.63 | 0.51 | 69 | 1006.5 |
| 20260507141542 | 12 | 342 | 3.2 | 12.9 | 0.00 | 1.63 | 0.51 | 71 | 1006.8 |
| 20260507140042 | 12 | 310 | 6.4 | 12.9 | 0.00 | 1.63 | 0.51 | 72 | 1006.9 |
| 20260507134536 | 12 | 309 | 3.2 | 11.3 | 0.00 | 1.63 | 0.51 | 73 | 1006.8 |
| 20260507133035 | 12 | 355 | 4.8 | 12.9 | 0.00 | 1.63 | 0.51 | 73 | 1006.9 |
| 20260507131534 | 11 | 318 | 4.8 | 12.9 | 0.00 | 1.63 | 0.51 | 75 | 1007.0 |
| 20260507130040 | 11 | 342 | 4.8 | 14.5 | 0.00 | 1.63 | 0.51 | 78 | 1007.3 |
| 20260507124541 | 10 | 297 | 4.8 | 17.7 | 0.00 | 1.63 | 0.51 | 81 | 1007.2 |
| 20260507123044 | 10 | 340 | 4.8 | 17.7 | 0.00 | 1.63 | 0.51 | 87 | 1007.1 |
| 20260507121538 | 8 | 330 | 4.8 | 14.5 | 0.00 | 1.63 | 0.51 | 91 | 1007.2 |
| 20260507120036 | 8 | 301 | 4.8 | 9.7 | 0.00 | 1.63 | 0.51 | 94 | 1006.8 |
| 20260507114536 | 8 | 323 | 4.8 | 9.7 | 0.00 | 1.63 | 0.51 | 96 | 1007.1 |
| 20260507113037 | 7 | 5 | 1.6 | 4.8 | 0.00 | 1.63 | 0.51 | 96 | 1007.2 |
| 20260507111552 | 8 | 0 | 0.0 | 4.8 | 0.00 | 1.63 | 0.51 | 96 | 1007.5 |
| 20260507110040 | 7 | 348 | 1.6 | 3.2 | 0.00 | 1.63 | 0.51 | 96 | 1007.1 |
| 20260507104536 | 7 | 26 | 1.6 | 4.8 | 0.00 | 1.63 | 0.51 | 96 | 1007.3 |
| 20260507103036 | 7 | 0 | 0.0 | 3.2 | 0.00 | 1.63 | 0.51 | 96 | 1007.4 |
| 20260507101534 | 7 | 0 | 0.0 | 4.8 | 0.00 | 1.63 | 0.51 | 96 | 1007.1 |
| 20260507100042 | 7 | 0 | 1.6 | 9.7 | 0.00 | 1.63 | 0.51 | 96 | 1006.6 |
| 20260507094542 | 7 | 327 | 3.2 | 8.0 | 0.00 | 1.63 | 0.51 | 96 | 1006.9 |
| 20260507093044 | 7 | 22 | 3.2 | 17.7 | 0.00 | 1.63 | 0.51 | 96 | 1006.3 |
| 20260507091538 | 7 | 325 | 3.2 | 14.5 | 0.00 | 1.63 | 0.51 | 97 | 1006.8 |
| 20260507090043 | 8 | 47 | 4.8 | 17.7 | 0.00 | 1.63 | 0.51 | 97 | 1006.7 |
| 20260507084543 | 8 | 345 | 3.2 | 14.5 | 0.00 | 1.63 | 0.51 | 97 | 1006.6 |
| 20260507083041 | 8 | 351 | 4.8 | 14.5 | 0.00 | 1.63 | 0.51 | 97 | 1006.5 |
| 20260507081540 | 8 | 0 | 3.2 | 9.7 | 0.00 | 1.63 | 0.51 | 97 | 1006.7 |
| 20260507080051 | 8 | 338 | 3.2 | 9.7 | 0.00 | 1.63 | 0.51 | 97 | 1006.2 |
| 20260507074536 | 9 | 301 | 3.2 | 14.5 | 0.00 | 1.63 | 0.51 | 97 | 1006.5 |
| 20260507073040 | 9 | 296 | 4.8 | 12.9 | 0.00 | 1.63 | 0.51 | 97 | 1006.1 |